Woodward, OK

9:06 AM CST on December 16, 2017 (GMT -0600)
West Woodward

Weather History for KWWR - March, 2014

Change the Weather History Date:

Friday, March 21, 2014

  Actual Average (KGAG) Record (KGAG)
Temperature  
Mean Temperature 57 °F -  
Max Temperature 68 °F 65 °F 91 °F (2007)
Min Temperature 46 °F 33 °F 10 °F (1983)
Degree Days  
Heating Degree Days 8    
Growing Degree Days 7 (Base 50)    
Moisture  
Dew Point 22 °F    
Average Humidity 26    
Maximum Humidity 37    
Minimum Humidity 20    
Precipitation  
Precipitation 0.00 in - - ()
Sea Level Pressure  
Sea Level Pressure 29.90 in    
Wind  
Wind Speed 18 mph (NNW)    
Max Wind Speed 25 mph    
Max Gust Speed 31 mph    
Visibility 10 miles    
Events      
Averages and records for this station are not official NWS values.
T = Trace of Precipitation, MM = Missing Value Source: NWS Daily Summary

Daily Weather History Graph

Daily Weather History Graph

Search for Another Location

Airport or City:

Trip Planner

Search our weather history database for the weather conditions in past years. The results will help you decide how hot, cold, wet, or windy it might be!

Date:

Astronomy

Mar. 21, 2014 Rise Set
Actual Time 7:40 AM CDT 7:50 PM CDT
Civil Twilight 7:14 AM CDT 8:16 PM CDT
Nautical Twilight 6:44 AM CDT 8:46 PM CDT
Astronomical Twilight 6:13 AM CDT 9:17 PM CDT
Moon 12:04 AM CDT (3/21) 10:40 AM CDT (3/21)
Length of Visible Light 13h 02m
Length of Day
12h 10m
Waning Gibbous, 75% of the Moon is Illuminated
Mar 21
Waning Gibbous
Mar 23
Last Quarter
Mar 30
New
Apr 7
First Quarter
Apr 15
Full

Hourly Weather History & Observations

Time (CDT) Temp. Windchill Dew Point Humidity Pressure Visibility Wind Dir Wind Speed Gust Speed Precip Events Conditions
12:15 AM 60.8 °F - 24.8 °F 25% 29.79 in 10.0 mi South 21.9 mph 27.6 mph N/A   Clear
12:35 AM 60.8 °F - 24.8 °F 25% 29.79 in 10.0 mi South 21.9 mph 29.9 mph N/A   Clear
12:55 AM 60.8 °F - 24.8 °F 25% 29.78 in 10.0 mi South 23.0 mph 28.8 mph N/A   Clear
1:15 AM 59.0 °F - 23.0 °F 25% 29.77 in 10.0 mi South 24.2 mph 31.1 mph N/A   Clear
1:35 AM 60.8 °F - 23.0 °F 23% 29.76 in 10.0 mi South 23.0 mph 31.1 mph N/A   Clear
1:55 AM 60.8 °F - 23.0 °F 23% 29.75 in 10.0 mi South 21.9 mph 28.8 mph N/A   Clear
2:15 AM 59.0 °F - 23.0 °F 25% 29.75 in 10.0 mi South 21.9 mph 31.1 mph N/A   Clear
2:35 AM 59.0 °F - 23.0 °F 25% 29.74 in 10.0 mi South 20.7 mph 27.6 mph N/A   Clear
2:55 AM 59.0 °F - 23.0 °F 25% 29.74 in 10.0 mi South 18.4 mph 23.0 mph N/A   Clear
3:15 AM 59.0 °F - 23.0 °F 25% 29.74 in 10.0 mi SSW 15.0 mph 21.9 mph N/A   Clear
3:35 AM 59.0 °F - 21.2 °F 23% 29.74 in 10.0 mi SW 15.0 mph 23.0 mph N/A   Clear
3:55 AM 59.0 °F - 23.0 °F 25% 29.74 in 10.0 mi SSW 16.1 mph 21.9 mph N/A   Clear
4:15 AM 57.2 °F - 21.2 °F 25% 29.73 in 10.0 mi SSW 16.1 mph 21.9 mph N/A   Clear
4:35 AM 59.0 °F - 21.2 °F 23% 29.72 in 10.0 mi SSW 20.7 mph 25.3 mph N/A   Clear
4:55 AM 59.0 °F - 21.2 °F 23% 29.72 in 10.0 mi SSW 17.3 mph - N/A   Clear
5:15 AM 59.0 °F - 21.2 °F 23% 29.71 in 10.0 mi SSW 15.0 mph 20.7 mph N/A   Clear
5:35 AM 59.0 °F - 19.4 °F 22% 29.71 in 10.0 mi SSW 16.1 mph - N/A   Clear
5:55 AM 59.0 °F - 21.2 °F 23% 29.72 in 10.0 mi SW 13.8 mph - N/A   Clear
6:15 AM 59.0 °F - 21.2 °F 23% 29.75 in 10.0 mi WSW 9.2 mph - N/A   Clear
6:35 AM 55.4 °F - 21.2 °F 26% 29.75 in 10.0 mi WSW 11.5 mph - N/A   Clear
6:55 AM 55.4 °F - 21.2 °F 26% 29.76 in 10.0 mi WSW 11.5 mph - N/A   Clear
7:15 AM 55.4 °F - 21.2 °F 26% 29.76 in 10.0 mi WSW 11.5 mph 20.7 mph N/A   Clear
7:35 AM 53.6 °F - 21.2 °F 28% 29.76 in 10.0 mi SW 10.4 mph - N/A   Clear
7:55 AM 53.6 °F - 21.2 °F 28% 29.77 in 10.0 mi West 9.2 mph - N/A   Clear
8:15 AM 53.6 °F - 19.4 °F 26% 29.78 in 10.0 mi West 10.4 mph - N/A   Clear
8:35 AM 55.4 °F - 14.0 °F 20% 29.81 in 10.0 mi West 13.8 mph - N/A   Clear
8:55 AM 55.4 °F - 14.0 °F 20% 29.84 in 10.0 mi WNW 12.7 mph - N/A   Clear
9:15 AM 55.4 °F - 17.6 °F 23% 29.84 in 10.0 mi NW 10.4 mph - N/A   Clear
9:35 AM 55.4 °F - 21.2 °F 26% 29.86 in 10.0 mi NW 13.8 mph - N/A   Clear
9:55 AM 55.4 °F - 23.0 °F 29% 29.87 in 10.0 mi NNW 13.8 mph 25.3 mph N/A   Clear
10:15 AM 55.4 °F - 23.0 °F 29% 29.87 in 10.0 mi North 18.4 mph 24.2 mph N/A   Clear
10:35 AM 57.2 °F - 24.8 °F 29% 29.88 in 10.0 mi North 21.9 mph 29.9 mph N/A   Clear
10:55 AM 59.0 °F - 24.8 °F 27% 29.89 in 10.0 mi North 16.1 mph - N/A   Clear
11:15 AM 59.0 °F - 23.0 °F 25% 29.91 in 10.0 mi North 19.6 mph 25.3 mph N/A   Clear
11:35 AM 55.4 °F - 23.0 °F 29% 29.92 in 10.0 mi North 18.4 mph 26.5 mph N/A   Clear
11:55 AM 55.4 °F - 21.2 °F 26% 29.93 in 10.0 mi North 23.0 mph 29.9 mph N/A   Clear
12:15 PM 55.4 °F - 21.2 °F 26% 29.94 in 10.0 mi North 20.7 mph 26.5 mph N/A   Clear
12:35 PM 55.4 °F - 23.0 °F 29% 29.94 in 10.0 mi North 18.4 mph 25.3 mph N/A   Clear
12:55 PM 59.0 °F - 24.8 °F 27% 29.94 in 10.0 mi North 21.9 mph 26.5 mph N/A   Clear
1:15 PM 60.8 °F - 24.8 °F 25% 29.94 in 10.0 mi North 25.3 mph - N/A   Clear
1:35 PM 62.6 °F - 26.6 °F 26% 29.95 in 10.0 mi North 23.0 mph 26.5 mph N/A   Clear
1:55 PM 62.6 °F - 26.6 °F 26% 29.95 in 10.0 mi North 21.9 mph 29.9 mph N/A   Clear
2:15 PM 62.6 °F - 26.6 °F 26% 29.95 in 10.0 mi North 23.0 mph 27.6 mph N/A   Clear
2:35 PM 64.4 °F - 26.6 °F 24% 29.95 in 10.0 mi North 24.2 mph 31.1 mph N/A   Clear
2:55 PM 64.4 °F - 26.6 °F 24% 29.95 in 10.0 mi NNE 20.7 mph 27.6 mph N/A   Clear
3:15 PM 66.2 °F - 26.6 °F 23% 29.95 in 10.0 mi North 19.6 mph 29.9 mph N/A   Clear
3:35 PM 66.2 °F - 24.8 °F 21% 29.95 in 10.0 mi North 17.3 mph 26.5 mph N/A   Clear
3:55 PM 68.0 °F - 24.8 °F 20% 29.95 in 10.0 mi North 20.7 mph 28.8 mph N/A   Clear
4:15 PM 66.2 °F - 26.6 °F 23% 29.96 in 10.0 mi North 24.2 mph 27.6 mph N/A   Clear
4:35 PM 66.2 °F - 24.8 °F 21% 29.97 in 10.0 mi NNE 24.2 mph 29.9 mph N/A   Clear
4:55 PM 64.4 °F - 24.8 °F 22% 29.98 in 10.0 mi NNE 20.7 mph 27.6 mph N/A   Clear
5:15 PM 64.4 °F - 24.8 °F 22% 29.98 in 10.0 mi North 24.2 mph 29.9 mph N/A   Clear
5:35 PM 62.6 °F - 23.0 °F 22% 29.99 in 10.0 mi NNE 18.4 mph 31.1 mph N/A   Clear
5:55 PM 64.4 °F - 23.0 °F 21% 30.00 in 10.0 mi North 18.4 mph 29.9 mph N/A   Clear
6:15 PM 62.6 °F - 23.0 °F 22% 30.01 in 10.0 mi NNE 18.4 mph 27.6 mph N/A   Clear
6:35 PM 62.6 °F - 23.0 °F 22% 30.02 in 10.0 mi NNE 17.3 mph 25.3 mph N/A   Clear
6:55 PM 62.6 °F - 23.0 °F 22% 30.02 in 10.0 mi North 18.4 mph 24.2 mph N/A   Clear
7:15 PM 60.8 °F - 23.0 °F 23% 30.03 in 10.0 mi North 17.3 mph - N/A   Clear
7:35 PM 59.0 °F - 21.2 °F 23% 30.05 in 10.0 mi NNE 16.1 mph 20.7 mph N/A   Clear
7:55 PM 55.4 °F - 21.2 °F 26% 30.05 in 10.0 mi NNE 11.5 mph - N/A   Clear
8:15 PM 55.4 °F - 21.2 °F 26% 30.07 in 10.0 mi NNE 11.5 mph - N/A   Clear
8:35 PM 53.6 °F - 21.2 °F 28% 30.07 in 10.0 mi NNE 10.4 mph - N/A   Clear
8:55 PM 51.8 °F - 21.2 °F 30% 30.09 in 10.0 mi NNE 8.1 mph - N/A   Clear
9:15 PM 50.0 °F - 21.2 °F 32% 30.10 in 10.0 mi NNE 9.2 mph - N/A   Clear
9:35 PM 50.0 °F - 21.2 °F 32% 30.10 in 10.0 mi NNE 9.2 mph - N/A   Clear
9:55 PM 50.0 °F - 21.2 °F 32% 30.10 in 10.0 mi NNE 9.2 mph - N/A   Clear
10:15 PM 48.2 °F - 21.2 °F 34% 30.11 in 10.0 mi NNE 9.2 mph - N/A   Clear
10:35 PM 46.4 °F 42.4 °F 21.2 °F 37% 30.12 in 10.0 mi North 8.1 mph - N/A   Clear
10:55 PM 46.4 °F 41.9 °F 21.2 °F 37% 30.12 in 10.0 mi NNE 9.2 mph - N/A   Clear
11:15 PM 46.4 °F 41.9 °F 21.2 °F 37% 30.13 in 10.0 mi NNE 9.2 mph - N/A   Clear
11:35 PM 46.4 °F 41.1 °F 21.2 °F 37% 30.12 in 10.0 mi NNE 11.5 mph - N/A   Clear
11:55 PM 46.4 °F 41.5 °F 21.2 °F 37% 30.10 in 10.0 mi NE 10.4 mph - N/A   Clear